CZ-4B DEB

Satellite information

Favourite Embed

Satellite Type and Status

DEBRISIN ORBIT

Key statistics

Satellite CZ-4B DEB at a glance.

Uptime

1905

Days in orbit

Revolutions

≈ 14.8

Per day

Orbit

SSO

Sun Synchronous Orbit

Inclination

97.8

Latest

Satellite identification and parameters

Extended collection of information and parameters for CZ-4B DEB.

Object identification

Identified? True

Debris? True

Object name: CZ-4B DEB

International designator: 2020-067H

Object number (NORAD): 49046

Object ID (CCSDS): 49046

Country: PEOPLES REPUBLIC OF CHINA (PRC)

Current information (Y/N): Y

RCS size: SMALL

Orbital parameters

Period: 97.541 minutes

Inclination: 97.7642 deg

SMA: 7019.18 km

Apoapsis: 662.085 km

Periapsis: 620.006 km

RAAN: 26.3608 deg

Eccentricy: 0.0029975

Argument of periapsis: 176.0089 deg

Mean anomaly: 184.1366 deg

Mean motion: 14.76295001 rev/day

Mean motion (dot): 0.00003973 rev/day2

B* drag term: 0.00057587912 1/REarth

Two-line elements (TLE)

Creation date: Dec. 13, 2025, 5:47 p.m.

Reference frame: TEME

Reference center: EARTH

Epoch: Dec. 13, 2025, 1:32 a.m. UTC

TLE line 0: 0 CZ-4B DEB

TLE line 1: 1 49046U 20067H 25347.06449731 .00003973 00000-0 57588-3 0 9991

TLE line 2: 2 49046 97.7642 26.3608 0029975 176.0089 184.1366 14.76295001256410

Live tracking on map

Real-time ground track for satellite CZ-4B DEB.

In-orbit conjunctions

A list of the most updated potential collisions computed for object CZ-4B DEB.

Target Orbit TCA Probability of collision Miss distance Type
SL-19 R/B SSO 2024-11-09 01:56:07 0.0007378937 438.0 (m) ROCKET BODY

Associated space launch

Huanjing (abbreviated as HJ) is a constellation of environmental monitoring satellites. The HJ-2A and HJ-2B are 16-meter optical satellites which will provide 16-meter multispectral, 48-meter hyperspectral and infrared image data.

CZ-4B DEB was lifted into orbit during the mission ‘Long March 4B | Huanjing 2A, 2B’, on board a Long March 4B space rocket.

The launch took place on Sept. 27, 2020, 3:23 a.m. from Launch Complex 9.

For more information about the launch, click the button.

Launch to space Long March 4B | Huanjing 2A, 2B
Long March 4B | Huanjing 2A, 2B

Agency: N/A

Status: Launch Successful

Launch date: Sept. 27, 2020, 3:23 a.m. UTC

Rocket: Long March 4B

Launch pad: Launch Complex 9

Location: Taiyuan Satellite Launch Center, People's Republic of China

...

Latest news about this satellite

News about space launch
Suprise Chinese launch lofts Huanjing duo

News about space launch
Secretive Chinese launch sends two remote sensing satellites into orbit

News about space launch
China launches environmental monitoring satellites


Newsletter sign-up

Weekly statistics, charts and insights to help you stay on top of the space industry.